ONEWEB-0015, 61594

Orbit data source: Space-Track

ONEWEB-0015, 61594 is a payload satellite owned by Eut. One Web (UK) in LEO that was launched on Sun, 20 Oct 2024 UTC via an FALCON 9 launch vehicle from the Air Force Western Test Range (AFWTR). Payload-class satellites include a variety of spacecraft equipped with specific instruments for various scientific and technological missions. These include communications satellites like Starlink; space stations such as the ISS; scientific satellites like the Hubble; Earth observation satellites from companies like Planet Labs, Umbra, and HawkEye 360; GPS; miniature CubeSats for education and research; and military/defense satellites.

Loading next visibility...
Identifier
61594, 2024-188A
Orbit
LEO
Last TLE update
1 day ago
Origin
Manufacturer
One Web
Mission
Operational Commercial Communications
Bus & Motor
ARROW, Unknown motor
Mass
148 kg wet, ~140 kg dry
Launch date (UTC)
2024-10-20 (9 months ago)
Launch vehicle
FALCON 9
Launch site
Air Force Western Test Range (AFWTR)
Object type
Payload
Rocket body
Debris
Shape & HBR
Trap Box + 2 Pan, 5 m
Radar Cross Section
2.032 m², Large (>1 m²)

Expand to show TLE details & history

TLE from 1 day ago
0 ONEWEB-0015
1 61594U 24188A   25187.76137539 -.00000510  00000-0 -14741-2 0  9999
2 61594  87.8863  89.9478 0001247  82.8439 277.2831 13.11418170 39188
Epoch: 2025-07-06T18:16Z
TLE epoch observation values (Epoch: 2025-07-06T18:16:22.833Z)
Latitude
-0°
Longitude
-109.12776°
Altitude
1,220.447 km
Speed
7.244 km/s
True Right ascension
05h 59m 47s
True Declination
0° 00' 00"
Sunlit
Object was in daylight at epoch
Visualization orbit readout
Latitude
-65.68215°
Longitude
-113.99879°
Altitude
1,243.504 km
Speed
7.232 km/s
Apparent Right ascension
22h 00m 30s
Apparent Declination
-76° 25' 10"
Sunlit
Object is in daylight
Visualization observer readout
Local Sidereal Time
07:38:04
Azimuth
192.377° SSW
Elevation
-50.367°
Doppler factor
1
Orbital elements
Apogee altitude
1,215.743 km
Perigee altitude
1,213.849 km
Semi-major axis
7,592.933 km
Eccentricity
0.00012
Inclination
87.8863°
RAAN
89.9478°
Arg. of periapsis
82.8439°
True anomaly
Unknown
Mean anomaly
277.2831°
Eccentric anomaly
Unknown
Mean motion
3.28042 °/min
Orbital period
109.74 mins
BSTAR
-0.0014741
Loading maneuver chart data...
Loading SW <> Apogee altitude chart data...
Loading historical data...
Loading historical data...
Loading historical data...
Loading historical data...
Loading historical data...
Loading historical data...
Loading historical data...

ONEWEB-0015 Visibility forecast

Observer location: undefined°, undefined°

Span
Click to sort rows by Start time (UTC) header in descending order
Start Az.
Max El. time (UTC)
Max El. Az.
Max El.
End time (UTC)
End Az.
6 mins2025-07-08 03:53:28.019Z52.046° ENE2025-07-08 03:55:28.019Z69.846° E14.556°2025-07-08 03:59:28.019Z103.787° ESE
13 mins2025-07-08 05:40:28.019Z359.388° N2025-07-08 05:46:28.019Z350.12° N44.984°2025-07-08 05:53:28.019Z181.723° SSW
5 mins2025-07-08 07:33:28.019Z305.667° NW2025-07-08 07:35:28.019Z287.706° WNW14.491°2025-07-08 07:38:28.019Z262.016° W
7 mins2025-07-08 16:13:28.019Z97.375° ESE2025-07-08 16:16:28.019Z69.467° E16.441°2025-07-08 16:20:28.019Z35.748° NE
12 mins2025-07-08 17:59:28.019Z183.847° SSW2025-07-08 18:05:28.019Z312.906° NW44.429°2025-07-08 18:11:28.019Z358.129° N
|